Wetbulb
41.59 42.68 52.23 56.80 62.60 64.94 66.66 68.40 69.01 69.48 70.13 70.71 71.31 71.73 71.87 72.10 72.08 72.11 71.89 71.86 72.08 72.32 72.55 72.82 72.69 72.66 72.73 72.71 72.81 72.74 72.79 72.69 72.79 72.89 72.75 72.85 73.32 73.19 73.52 72.90 72.31 71.10 73.61
42.02 41.84 50.83 56.12 61.26 63.38 65.13 66.49 67.62 68.11 68.53 69.36 70.45 70.99 71.40 71.58 71.62 71.64 71.45 71.62 71.66 71.76 72.04 72.07 72.17 72.26 72.11 72.12 72.21 72.30 72.19 72.08 71.83 71.76 71.37 71.13 71.87 73.25 72.68 73.09 72.64 70.83 72.49
39.93 40.50 41.54 56.26 59.75 61.86 63.33 64.70 65.73 66.65 67.53 68.13 68.97 69.77 70.36 71.10 71.27 71.31 71.20 71.51 71.34 71.35 71.55 71.48 71.75 71.77 71.80 71.72 72.02 72.17 72.06 71.87 71.62 70.91 70.22 68.85 69.60 72.87 72.88 73.29 72.90 72.27 71.40
38.51 38.74 39.17 55.08 57.84 60.06 61.34 62.71 63.57 65.01 65.38 65.90 66.71 67.83 68.76 69.56 70.12 70.61 70.92 71.03 71.21 71.22 71.31 71.32 71.14 71.36 71.25 71.28 71.52 71.81 71.77 71.39 70.66 69.83 67.86 68.48 68.91 71.94 71.94 71.77 72.60 72.63 72.16
36.45 36.70 39.12 52.22 55.26 57.70 59.10 60.20 61.37 62.58 62.62 63.45 64.12 65.39 66.57 67.65 68.18 68.63 68.60 69.15 70.36 70.69 70.67 70.85 71.03 70.96 71.01 70.94 71.08 71.22 71.51 71.39 69.95 67.75 66.44 67.08 67.70 70.15 72.15 72.11 71.21 72.02 72.09
34.97 34.88 38.36 48.69 51.83 54.77 56.26 57.37 58.96 59.57 60.24 60.78 60.58 62.19 63.47 64.86 65.69 66.15 65.96 66.55 67.86 69.35 70.12 70.10 70.42 70.89 71.22 71.00 70.88 70.91 71.03 70.84 69.29 66.67 66.30 66.87 67.32 70.97 71.49 72.43 71.65 71.61 71.66
33.18 33.94 34.07 44.64 47.62 50.67 53.07 54.41 55.57 56.25 57.04 57.38 57.77 58.39 58.91 60.81 62.66 63.30 63.48 64.06 65.58 66.63 68.45 69.65 69.73 69.83 70.38 70.57 70.59 70.60 70.41 69.01 67.22 66.76 66.53 66.51 67.02 71.53 71.89 71.57 71.86 71.85 71.50
31.48 32.22 32.65 37.38 42.79 45.54 49.51 50.94 52.11 52.89 53.52 53.91 53.88 53.97 54.11 56.09 57.43 58.69 59.49 61.34 62.98 64.12 65.64 67.11 68.30 69.53 69.27 69.47 69.95 70.09 69.49 67.87 66.52 65.89 66.16 66.36 68.33 71.44 72.42 72.67 72.49 72.60 72.11
30.45 30.07 29.82 30.22 34.20 38.70 43.51 46.82 48.45 49.46 49.87 50.20 50.17 49.87 49.34 49.93 51.12 53.27 54.47 57.36 59.90 60.77 61.98 63.50 64.83 65.76 68.50 68.96 68.33 68.68 68.16 67.29 65.61 65.73 66.30 66.15 68.14 71.50 72.05 73.06 72.43 72.00 72.55
29.38 29.40 28.39 28.37 29.14 30.13 32.50 42.41 43.74 45.21 45.82 45.93 45.10 45.47 44.84 43.48 46.01 47.11 49.40 52.10 55.14 55.86 57.30 59.50 61.34 62.22 62.49 65.31 66.27 66.76 66.39 66.45 65.35 65.54 65.63 66.08 69.41 71.07 71.89 72.68 72.58 72.06 72.11
28.10 28.08 27.82 27.39 27.89 28.87 32.05 33.45 36.31 40.19 40.87 40.73 38.59 40.80 37.45 35.70 37.50 38.17 43.86 47.27 49.75 50.97 52.59 55.00 57.19 57.80 57.32 58.05 62.28 64.73 65.16 65.54 65.15 65.05 65.31 67.24 69.85 70.48 70.54 71.50 71.86 72.43 72.12
24.47 25.93 26.45 25.89 26.16 27.41 30.75 28.88 29.57 32.17 31.78 32.75 31.18 31.80 33.03 33.29 34.75 37.01 38.49 42.72 44.34 45.78 46.95 50.06 52.16 52.69 51.72 52.15 55.60 60.65 63.51 64.66 64.72 64.67 65.44 68.39 69.96 70.37 70.18 70.44 71.20 71.38 72.25
23.59 24.48 25.54 24.63 25.35 25.41 26.06 27.37 27.63 29.60 29.08 30.74 29.33 29.93 31.31 31.22 30.95 32.32 33.42 34.26 34.89 38.46 37.50 41.32 42.71 44.71 46.89 50.07 52.45 54.99 60.40 63.22 64.20 64.73 65.90 67.82 69.07 69.67 69.85 69.84 70.19 70.95 71.44
22.62 22.96 24.31 23.65 22.95 24.14 24.75 25.09 25.79 26.78 27.45 28.40 27.54 28.15 28.58 27.73 27.94 29.27 30.99 32.00 32.28 33.52 34.70 37.25 39.10 41.34 43.41 46.48 49.20 51.64 54.24 60.12 62.81 64.11 65.75 65.94 67.38 67.96 68.56 68.99 69.51 69.88 70.84
21.43 22.09 22.43 22.37 21.98 22.85 22.69 23.34 24.54 25.05 25.62 27.17 26.13 26.72 27.53 25.98 25.72 27.86 29.28 30.13 30.66 32.29 33.27 34.24 35.72 37.34 39.68 42.97 45.48 48.60 50.77 52.77 59.67 63.03 64.15 63.96 65.80 66.42 66.90 67.52 67.86 68.79 69.56
21.96 21.29 22.14 22.27 22.24 22.17 21.72 21.79 22.43 24.03 24.59 25.91 24.95 25.27 26.44 25.60 25.16 26.84 27.46 28.15 29.21 30.90 31.85 32.14 33.14 34.58 37.12 39.04 41.59 44.98 47.71 50.70 55.17 61.22 62.52 62.78 63.95 64.33 65.10 66.47 67.46 67.86 68.45
21.03 21.82 21.80 22.90 22.23 21.11 20.84 21.76 21.76 22.73 24.03 23.64 23.32 24.19 24.72 24.86 24.79 25.65 25.51 26.40 28.16 29.86 30.00 30.01 31.11 33.15 34.24 36.66 38.80 41.87 45.36 47.79 50.63 56.53 60.35 59.87 60.15 61.19 62.13 64.29 65.28 66.42 67.47
20.91 20.68 21.72 22.38 21.06 20.93 20.16 20.97 21.83 21.75 22.08 21.89 22.01 22.64 23.32 23.74 24.64 24.17 23.94 24.97 27.29 27.97 28.06 27.83 28.56 29.89 30.68 34.01 36.37 37.53 39.47 44.33 48.06 53.19 58.68 57.93 57.91 58.59 59.47 61.31 62.55 64.11 65.24
18.24 19.12 20.13 20.84 19.56 19.64 19.64 20.16 20.04 20.20 20.63 20.65 20.73 21.14 21.66 22.43 23.65 23.08 23.50 24.23 25.74 25.64 25.70 26.41 27.39 28.06 28.27 31.41 32.14 33.72 38.24 43.58 47.61 52.75 55.70 56.98 58.32 58.70 58.44 58.87 59.83 60.59 61.71
17.19 17.27 18.89 20.18 19.03 18.95 18.95 18.99 19.63 19.73 19.83 19.45 18.72 19.94 19.98 20.88 22.15 21.90 22.77 23.23 24.45 24.19 24.21 24.45 25.53 27.38 27.56 28.80 30.16 34.53 35.85 39.22 43.97 49.35 53.35 54.75 56.29 56.55 57.02 56.61 55.53 57.24 60.27
16.84 16.58 16.47 17.61 17.23 17.22 16.44 15.58 16.40 14.67 17.81 17.53 18.52 18.50 18.46 19.36 20.67 20.98 21.46 22.31 22.67 22.45 22.58 22.91 24.85 24.21 26.19 27.19 30.99 29.39 34.48 41.55 42.50 45.09 49.34 52.52 53.49 54.39 54.25 55.02 55.00 55.89 58.39
16.12 15.30 15.88 16.89 16.58 16.36 16.40 16.35 16.14 14.51 16.92 17.80 17.67 17.48 17.45 17.58 19.31 20.95 20.11 21.19 21.07 21.80 21.64 21.54 22.24 22.45 25.17 27.28 24.95 27.71 29.97 36.59 37.13 36.73 43.85 45.35 49.25 50.07 50.67 52.84 53.06 54.70 56.60
14.22 13.74 16.10 16.53 16.34 14.73 12.82 15.48 16.17 17.03 17.69 16.52 15.18 15.83 16.13 16.60 17.89 19.77 19.92 19.60 19.79 21.11 20.68 20.62 21.87 22.53 21.94 24.62 25.22 28.15 27.08 27.69 28.21 35.76 36.15 42.20 42.51 44.48 47.56 49.37 50.41 52.12 54.82
13.68 13.06 14.64 15.33 16.21 14.37 11.80 7.97 8.08 10.11 11.86 11.54 12.09 13.63 14.61 15.05 15.82 18.50 19.29 18.42 19.11 19.85 19.55 20.08 22.15 22.04 23.20 21.36 24.81 28.13 26.59 26.70 26.06 25.78 32.73 36.00 41.45 38.85 41.82 43.10 46.82 50.08 52.34
16.94 11.45 8.45 9.64 12.11 11.32 6.15 6.25 1.25 5.78 6.76 9.35 10.34 9.97 11.24 12.88 14.54 16.10 16.87 16.58 17.34 18.49 18.75 19.09 19.90 21.38 22.59 22.17 22.09 22.65 24.59 26.51 27.95 28.43 26.68 29.62 33.26 36.22 38.51 42.60 44.08 48.00 50.12
12.70 12.06 10.65 10.75 10.84 9.68 8.57 3.58 2.67 -3.05 0.36 6.88 6.31 7.96 9.33 10.80 12.74 13.55 14.61 14.59 15.60 16.41 17.30 18.57 19.48 19.82 20.81 21.76 22.80 23.17 23.11 23.26 23.96 23.94 24.51 26.00 27.37 31.89 36.07 39.89 42.40 45.13 48.66
MSLP
1028.73 1028.39 1027.56 1026.48 1024.84 1023.75 1022.73 1021.89 1021.32 1020.88 1020.39 1019.92 1019.48 1019.16 1018.88 1018.61 1018.44 1018.41 1018.29 1018.11 1017.88 1017.71 1017.38 1017.25 1017.29 1017.26 1016.94 1017.04 1016.87 1016.88 1016.79 1016.77 1016.78 1016.73 1016.74 1016.66 1016.46 1016.28 1016.41 1016.45 1016.36 1016.27 1016.25
1029.38 1028.95 1028.04 1026.74 1025.34 1024.33 1023.46 1022.66 1021.98 1021.55 1021.13 1020.67 1020.14 1019.65 1019.37 1019.10 1018.90 1018.64 1018.38 1018.29 1018.17 1018.01 1017.80 1017.78 1017.74 1017.23 1017.23 1017.30 1017.19 1017.18 1017.16 1017.18 1017.09 1016.92 1016.94 1017.00 1016.84 1016.73 1016.75 1016.85 1016.78 1016.64 1016.59
1029.56 1029.37 1028.62 1026.97 1025.85 1024.87 1024.11 1023.33 1022.73 1022.21 1021.78 1021.37 1020.90 1020.41 1019.99 1019.64 1019.41 1019.21 1019.07 1018.90 1018.74 1018.45 1018.23 1018.20 1018.03 1017.90 1017.78 1017.65 1017.26 1017.31 1017.34 1017.32 1017.35 1017.13 1017.03 1017.08 1017.13 1016.90 1016.92 1016.98 1017.08 1016.96 1016.81
1030.02 1029.92 1029.19 1027.54 1026.46 1025.52 1024.76 1024.01 1023.44 1022.95 1022.56 1022.21 1021.78 1021.26 1020.79 1020.39 1020.09 1019.83 1019.65 1019.30 1018.97 1018.66 1018.30 1018.32 1018.18 1018.14 1018.01 1017.85 1017.67 1017.56 1017.45 1017.41 1017.43 1017.44 1017.24 1017.24 1017.21 1017.04 1016.95 1017.12 1017.22 1017.22 1017.17
1030.44 1030.44 1029.80 1028.28 1027.17 1026.23 1025.44 1024.83 1024.24 1023.76 1023.41 1023.08 1022.66 1022.15 1021.62 1021.15 1020.80 1020.54 1020.32 1019.98 1019.50 1019.07 1018.79 1018.59 1018.51 1018.40 1018.26 1018.08 1017.81 1017.97 1017.70 1017.51 1017.70 1017.63 1017.38 1017.30 1017.22 1017.02 1017.01 1017.09 1017.28 1017.36 1017.40
1030.57 1030.74 1030.39 1029.12 1028.09 1027.08 1026.32 1025.73 1025.11 1024.65 1024.24 1023.96 1023.53 1023.07 1022.56 1022.02 1021.64 1021.29 1021.08 1020.76 1020.31 1019.93 1019.48 1019.17 1018.89 1018.59 1018.40 1018.12 1018.07 1017.92 1017.77 1017.73 1017.79 1017.72 1017.58 1017.43 1017.21 1016.93 1017.01 1017.13 1017.26 1017.32 1017.56
1031.20 1031.01 1030.88 1029.92 1029.06 1028.14 1027.27 1026.68 1026.07 1025.60 1025.21 1024.80 1024.39 1023.96 1023.58 1023.07 1022.53 1022.16 1021.82 1021.44 1020.96 1020.53 1020.03 1019.56 1019.28 1019.06 1018.78 1018.57 1018.38 1018.27 1018.03 1018.00 1018.09 1017.81 1017.62 1017.36 1017.24 1016.91 1016.79 1017.00 1017.25 1017.31 1017.44
1031.67 1031.40 1031.12 1030.54 1029.83 1029.05 1028.21 1027.55 1027.02 1026.55 1026.10 1025.64 1025.26 1024.90 1024.49 1023.99 1023.55 1023.17 1022.77 1022.28 1021.79 1021.32 1020.83 1020.35 1019.88 1019.30 1018.97 1018.76 1018.62 1018.54 1018.42 1018.27 1018.06 1018.11 1017.77 1017.51 1017.29 1016.98 1016.84 1017.05 1017.13 1017.33 1017.42
1032.01 1031.79 1031.60 1031.06 1030.50 1029.90 1029.08 1028.36 1027.79 1027.32 1026.90 1026.44 1026.04 1025.63 1025.32 1024.97 1024.52 1024.09 1023.68 1023.12 1022.59 1022.12 1021.61 1021.11 1020.66 1020.15 1019.54 1019.11 1018.83 1018.58 1018.40 1018.30 1018.20 1017.98 1017.87 1017.62 1017.39 1017.14 1016.97 1017.03 1017.11 1017.22 1017.32
1032.52 1032.24 1032.06 1031.54 1030.99 1030.36 1029.92 1029.17 1028.52 1028.04 1027.67 1027.34 1027.01 1026.54 1026.15 1025.83 1025.45 1025.12 1024.57 1024.09 1023.42 1022.87 1022.39 1021.82 1021.28 1020.80 1020.35 1019.72 1019.32 1018.97 1018.54 1018.26 1018.20 1018.04 1017.80 1017.71 1017.41 1017.23 1016.96 1016.96 1017.04 1017.11 1017.23
1032.91 1032.76 1032.49 1032.03 1031.43 1031.03 1030.31 1030.04 1029.60 1028.98 1028.72 1028.26 1027.90 1027.39 1027.06 1026.73 1026.33 1026.09 1025.73 1025.11 1024.35 1023.66 1023.12 1022.49 1021.81 1021.35 1020.88 1020.33 1019.79 1019.28 1018.76 1018.41 1018.20 1018.04 1017.87 1017.62 1017.34 1017.14 1017.07 1017.04 1017.07 1017.11 1017.13
1033.63 1033.33 1033.19 1032.73 1032.20 1031.82 1031.16 1030.89 1030.45 1030.01 1029.78 1029.30 1029.02 1028.51 1027.99 1027.74 1027.37 1026.92 1026.50 1025.79 1025.13 1024.67 1024.00 1023.29 1022.62 1022.03 1021.58 1021.18 1020.56 1019.77 1019.19 1018.80 1018.46 1018.19 1017.84 1017.58 1017.44 1017.24 1017.15 1017.15 1017.08 1017.03 1017.05
1034.62 1034.27 1033.87 1033.50 1033.02 1032.55 1032.12 1031.70 1031.33 1030.85 1030.69 1030.25 1029.96 1029.52 1029.08 1028.53 1028.05 1027.59 1027.15 1026.58 1026.16 1025.54 1024.91 1024.34 1023.55 1022.98 1022.51 1021.94 1021.24 1020.71 1019.86 1019.07 1018.61 1018.17 1017.83 1017.56 1017.49 1017.41 1017.29 1017.21 1017.16 1017.09 1017.02
1035.03 1034.93 1034.56 1034.20 1033.80 1033.20 1032.91 1032.44 1032.11 1031.81 1031.60 1031.19 1030.87 1030.54 1029.94 1029.57 1029.27 1028.84 1028.35 1027.80 1027.29 1026.76 1026.19 1025.47 1024.77 1024.13 1023.48 1022.62 1022.09 1021.09 1020.50 1019.68 1018.99 1018.35 1017.86 1017.58 1017.46 1017.46 1017.45 1017.46 1017.38 1017.22 1017.10
1035.26 1035.14 1034.92 1034.66 1034.36 1033.89 1033.58 1033.14 1032.73 1032.55 1032.31 1032.03 1031.59 1031.26 1030.87 1030.57 1030.26 1029.91 1029.44 1028.85 1028.37 1027.87 1027.20 1026.52 1025.81 1025.10 1024.09 1023.19 1022.71 1021.82 1020.97 1020.36 1019.46 1018.67 1018.09 1017.65 1017.49 1017.54 1017.48 1017.50 1017.40 1017.32 1017.12
1035.56 1035.61 1035.45 1035.14 1034.78 1034.40 1034.15 1033.83 1033.70 1033.44 1033.02 1032.50 1032.25 1032.04 1031.66 1031.48 1031.20 1030.74 1030.17 1029.69 1029.21 1028.68 1028.15 1027.55 1026.78 1025.86 1024.88 1024.06 1023.18 1022.36 1021.56 1020.70 1019.93 1018.98 1018.39 1018.09 1017.97 1017.76 1017.47 1017.38 1017.45 1017.23 1017.06
1035.91 1035.74 1035.47 1035.05 1035.11 1034.94 1034.72 1034.56 1034.36 1034.13 1033.70 1033.30 1033.06 1032.74 1032.38 1031.99 1031.59 1031.23 1030.87 1030.41 1029.93 1029.35 1028.83 1028.17 1027.43 1026.58 1025.63 1024.72 1023.85 1022.78 1021.89 1021.08 1020.22 1019.29 1018.64 1018.34 1018.04 1017.77 1017.73 1017.52 1017.31 1017.32 1017.09
1036.02 1035.91 1035.82 1035.64 1035.56 1035.35 1035.25 1035.03 1034.74 1034.55 1034.20 1034.01 1033.77 1033.41 1032.97 1032.61 1032.21 1031.72 1031.38 1031.00 1030.59 1030.06 1029.56 1028.99 1028.29 1027.26 1026.41 1025.52 1024.49 1023.38 1022.42 1021.34 1020.31 1019.33 1018.67 1018.38 1018.17 1017.98 1017.64 1017.69 1017.28 1017.28 1017.10
1036.31 1036.24 1036.13 1036.09 1036.13 1035.83 1035.55 1035.26 1034.99 1034.68 1034.38 1034.34 1034.16 1033.88 1033.60 1033.26 1032.84 1032.40 1032.04 1031.73 1031.16 1030.72 1030.35 1029.82 1029.05 1028.48 1027.28 1026.19 1025.10 1023.78 1022.55 1021.32 1020.13 1018.97 1018.51 1018.20 1018.14 1017.85 1017.64 1017.27 1017.15 1017.12 1017.04
1036.36 1036.63 1036.52 1036.25 1036.20 1035.78 1035.37 1035.07 1034.84 1034.69 1034.70 1034.81 1034.78 1034.54 1034.35 1034.06 1033.68 1033.23 1032.76 1032.36 1031.91 1031.51 1031.18 1030.57 1029.78 1028.96 1028.19 1027.31 1025.57 1023.94 1022.49 1021.11 1020.17 1019.43 1018.85 1018.23 1018.16 1017.98 1017.64 1017.30 1016.83 1016.70 1016.58
1036.72 1036.90 1036.80 1036.46 1036.23 1035.81 1035.36 1035.18 1035.05 1035.36 1035.33 1035.25 1035.19 1035.16 1034.97 1034.66 1034.19 1033.72 1033.29 1032.81 1032.45 1032.15 1032.02 1031.47 1030.44 1029.56 1028.38 1027.66 1025.70 1023.82 1022.24 1021.00 1020.62 1020.43 1019.68 1018.87 1018.57 1018.20 1018.02 1017.59 1017.31 1016.44 1016.22
1036.81 1036.97 1036.77 1036.52 1036.56 1036.50 1036.18 1035.96 1035.84 1035.98 1035.67 1035.59 1035.62 1035.49 1035.33 1034.97 1034.45 1033.83 1033.67 1033.24 1032.96 1032.59 1032.41 1032.10 1031.51 1030.68 1029.79 1029.18 1028.44 1026.65 1024.12 1021.79 1021.29 1021.14 1020.36 1020.06 1019.56 1018.90 1018.40 1017.83 1017.44 1017.06 1016.45
1036.77 1036.72 1036.52 1036.57 1036.73 1036.90 1036.86 1036.23 1035.94 1035.77 1035.71 1035.74 1035.80 1035.52 1035.42 1035.13 1034.75 1034.29 1033.98 1033.67 1033.41 1033.10 1032.92 1032.74 1032.25 1031.79 1031.12 1030.25 1029.84 1029.08 1027.41 1025.84 1024.76 1021.67 1021.32 1020.79 1020.33 1019.86 1019.00 1018.11 1017.74 1017.23 1016.68
1036.37 1036.45 1036.61 1036.74 1036.80 1037.15 1037.25 1037.33 1036.76 1036.70 1036.68 1036.88 1036.78 1036.42 1035.87 1035.46 1035.10 1034.68 1034.39 1034.30 1034.02 1033.79 1033.64 1033.35 1032.79 1032.72 1032.22 1031.52 1030.43 1029.96 1030.10 1029.38 1027.32 1024.08 1022.13 1021.56 1020.63 1020.41 1019.66 1018.58 1017.90 1017.33 1016.71
1035.68 1036.22 1036.61 1036.92 1037.37 1037.68 1038.01 1037.96 1037.84 1037.64 1037.42 1037.13 1036.83 1036.58 1036.18 1035.84 1035.57 1035.28 1035.05 1034.95 1034.67 1034.34 1034.03 1033.83 1033.48 1032.92 1032.56 1032.29 1031.80 1030.97 1030.09 1029.20 1028.15 1027.06 1024.45 1022.24 1020.99 1020.95 1019.68 1018.94 1018.22 1017.25 1016.29
1035.52 1036.00 1036.45 1037.02 1037.64 1038.04 1038.03 1038.34 1038.13 1037.69 1037.44 1037.15 1037.01 1036.71 1036.47 1036.22 1035.90 1035.86 1035.73 1035.54 1035.17 1034.75 1034.36 1033.96 1033.57 1033.25 1032.77 1032.34 1031.91 1031.42 1030.74 1029.91 1028.91 1028.40 1026.62 1025.45 1023.54 1020.21 1020.26 1018.90 1017.58 1016.94 1015.95
Wind_Speed
11 14 26 28 25 25 25 24 23 23 22 22 21 18 17 16 16 16 17 16 17 16 15 15 13 13 14 13 12 11 11 12 12 12 11 9 9 10 9 9 8 6 11
10 14 24 26 24 24 24 24 23 23 23 23 22 21 20 17 17 18 18 17 16 16 15 14 13 13 13 11 11 10 9 9 10 9 9 8 8 7 5 6 6 7 9
12 13 17 24 23 23 24 24 24 24 23 23 23 22 22 22 20 17 16 15 15 15 14 13 12 11 11 11 11 10 9 9 8 8 8 5 5 6 6 6 3 6 8
12 12 17 22 22 23 23 24 24 23 25 25 24 23 22 22 22 22 21 18 15 15 16 14 13 12 10 10 9 8 9 9 9 7 4 4 4 4 2 2 3 3 5
13 13 15 22 22 23 23 24 24 24 25 25 24 24 24 23 23 23 24 24 21 16 16 16 15 13 11 10 10 9 7 7 7 6 5 5 4 4 3 2 2 2 2
13 13 16 21 20 22 23 24 24 24 24 24 24 23 25 24 24 25 25 25 24 24 16 16 16 15 14 12 10 10 11 9 6 4 4 5 5 4 6 4 4 4 3
12 13 12 19 20 21 23 23 23 24 24 25 25 24 24 24 24 24 25 25 25 25 24 20 16 15 15 14 12 10 8 9 5 5 5 5 6 7 6 4 6 6 6
12 14 14 18 20 20 22 22 23 24 24 25 26 25 25 25 25 25 25 25 24 24 24 24 24 20 16 15 14 12 10 8 5 5 6 5 8 8 7 6 8 9 9
10 11 11 12 16 19 21 23 23 24 25 26 27 26 25 25 26 25 26 26 24 24 24 24 24 23 23 17 16 13 11 9 6 4 5 4 8 10 6 5 8 9 8
9 10 12 11 12 12 11 23 23 25 25 26 26 26 24 23 25 25 26 26 25 26 25 24 24 24 24 20 20 19 12 6 4 5 4 4 11 10 7 5 7 9 10
10 11 12 12 13 12 12 14 18 23 24 25 23 26 18 12 14 17 22 25 25 28 26 26 25 24 24 21 21 20 16 4 4 3 3 8 10 5 5 5 6 8 9
12 12 12 12 13 11 11 11 11 12 10 12 14 15 11 12 13 15 18 25 25 27 25 26 25 23 19 10 9 16 7 8 4 4 3 7 10 9 5 6 7 8 9
6 8 11 11 11 11 9 7 6 6 7 8 14 13 11 10 10 10 8 10 11 20 11 15 14 11 14 10 9 9 12 9 5 3 4 4 8 9 8 9 9 8 9
6 8 8 10 9 10 7 7 7 7 7 7 10 14 10 8 10 10 8 10 10 10 13 12 9 12 14 14 13 12 12 11 7 5 5 7 4 6 7 10 11 12 12
6 7 8 8 9 8 8 7 7 8 7 8 9 11 10 9 9 8 8 9 9 10 10 10 11 11 12 13 13 13 12 12 13 7 4 9 3 4 7 9 10 12 15
5 6 6 6 8 8 7 8 6 6 7 8 8 10 12 8 8 8 9 9 9 9 10 9 10 11 10 11 13 13 13 11 12 12 4 4 8 8 6 8 12 13 15
3 4 7 7 7 7 7 6 5 6 7 7 8 10 12 11 11 9 8 8 9 9 11 10 10 9 9 10 12 12 12 13 11 11 8 4 5 7 10 11 10 15 16
4 6 5 7 8 7 6 4 4 4 5 6 6 7 11 12 12 9 8 9 10 9 9 9 10 10 10 10 10 11 11 11 12 11 8 5 4 4 6 11 11 14 16
3 4 5 5 5 6 4 2 3 5 6 6 6 8 12 12 12 9 8 9 11 9 9 10 9 9 11 10 12 11 10 9 11 8 8 8 9 7 5 8 10 12 16
4 4 3 4 5 5 3 2 3 4 6 6 6 8 10 8 10 8 7 8 9 8 9 10 11 9 8 10 11 9 11 10 9 8 8 6 8 9 9 9 4 5 12
3 2 2 3 5 5 3 3 3 3 3 4 6 7 9 8 9 7 6 8 9 8 9 11 8 12 6 13 8 9 6 8 7 9 9 8 10 10 9 9 7 4 6
3 1 3 5 6 6 4 2 1 1 1 1 5 5 8 8 9 9 9 9 10 8 9 10 11 9 4 11 8 7 8 6 9 13 7 10 9 8 10 11 10 11 8
5 3 4 4 4 4 5 3 2 1 0 3 5 7 8 9 10 10 9 9 9 8 8 9 9 14 10 5 11 4 7 6 15 4 13 9 14 10 10 11 12 12 13
5 3 3 3 3 4 5 4 5 3 2 2 2 5 6 8 9 10 10 10 9 7 8 8 9 8 8 10 5 7 6 9 6 11 7 14 7 15 14 11 10 13 14
7 5 3 3 2 2 3 3 3 2 2 2 1 4 6 7 8 10 10 9 8 6 7 7 7 8 6 6 7 8 8 7 10 8 13 15 13 11 12 11 13 11 12
5 6 5 4 2 2 2 2 3 4 3 4 5 6 6 5 5 7 11 8 8 7 7 7 7 6 6 6 6 7 7 6 9 9 12 14 19 15 13 13 12 12 10
Wind_Direction
346 345 339 337 356 4 7 19 28 29 29 31 32 37 39 36 38 37 37 32 32 34 41 39 37 37 37 32 35 38 42 42 45 43 37 38 50 55 69 75 71 64 73
349 351 340 336 358 9 12 18 28 32 31 29 25 32 33 38 41 36 30 27 26 27 30 31 29 34 35 37 36 30 39 42 36 39 39 27 16 37 89 90 77 93 86
5 355 336 345 2 11 15 21 27 30 32 32 30 30 28 29 34 35 29 24 21 23 24 24 30 31 29 27 32 29 29 32 27 22 22 15 354 24 80 91 95 96 97
10 1 335 1 6 13 18 23 27 28 30 29 28 30 29 30 29 29 29 20 16 15 17 15 14 21 23 20 21 26 25 24 18 13 15 2 352 319 92 108 125 131 125
15 7 344 3 8 15 20 23 26 29 30 28 27 28 30 30 32 29 25 20 16 12 15 9 6 4 9 13 14 1 12 28 14 5 355 347 334 281 212 159 161 178 162
13 8 357 6 10 17 22 25 26 29 30 30 28 28 28 29 29 29 25 20 15 15 12 11 7 2 358 1 1 360 355 0 4 357 338 329 337 266 219 175 153 149 195
9 9 1 8 15 18 26 27 27 29 31 29 28 29 29 28 27 27 24 20 16 13 10 8 2 0 358 355 353 350 351 346 349 344 329 330 337 318 226 200 176 169 188
11 5 5 8 16 20 22 27 29 31 31 31 30 28 28 28 26 24 21 19 15 13 14 9 8 360 352 352 349 346 342 340 339 329 326 322 320 328 239 210 185 196 192
13 11 3 3 7 10 20 27 27 30 30 29 26 26 27 27 27 23 20 17 15 13 12 9 5 3 4 354 347 342 336 334 329 321 320 318 314 329 267 235 209 206 207
19 17 7 7 6 1 18 20 25 28 28 27 24 24 23 23 22 19 19 14 13 12 10 7 6 5 1 358 355 346 327 327 328 320 318 302 306 306 307 249 229 218 217
19 17 10 8 9 4 21 14 15 23 24 23 20 19 16 15 11 14 11 15 14 12 7 5 5 4 2 356 350 345 334 322 313 304 301 301 294 299 319 320 274 239 226
12 9 12 7 8 7 15 8 11 17 14 19 17 13 14 14 12 15 11 12 12 9 6 3 3 2 1 352 344 342 339 325 314 305 292 303 302 301 314 321 305 274 242
359 12 10 7 5 10 10 11 12 13 12 15 19 14 12 12 8 10 6 7 4 3 4 358 359 358 349 348 344 337 330 332 322 282 276 274 311 337 350 335 319 305 275
16 11 9 12 8 12 6 9 11 15 16 17 17 14 15 14 11 9 7 5 6 1 357 357 354 348 342 344 338 336 335 334 322 316 307 272 304 331 339 336 327 316 299
27 11 6 12 11 10 16 7 14 15 11 12 19 17 17 15 9 3 5 6 5 358 358 354 349 345 342 342 336 335 333 327 321 313 305 283 238 291 310 315 318 309 300
29 17 353 21 12 11 16 12 11 6 5 17 19 16 17 17 11 8 7 6 3 0 355 351 348 342 339 339 333 334 326 320 319 312 301 313 319 318 309 315 314 310 299
33 11 11 20 10 15 12 16 11 16 12 20 15 12 13 14 10 8 8 7 1 356 354 352 352 344 345 339 331 331 324 318 313 315 301 293 293 304 313 307 310 307 305
31 21 13 16 1 3 2 359 14 16 26 27 19 13 14 13 11 13 11 9 357 358 359 354 353 347 347 341 334 325 314 305 302 298 304 294 287 293 292 289 310 304 303
65 29 17 17 358 351 346 342 30 29 37 27 20 17 11 9 9 10 8 1 358 1 3 355 354 353 337 342 326 315 305 297 290 293 281 290 287 272 274 276 286 293 297
89 53 20 27 7 356 339 358 42 48 35 26 19 19 9 4 9 10 7 5 2 4 2 357 352 350 327 339 319 310 304 288 289 299 301 301 289 288 283 276 259 274 286
96 74 24 35 15 12 357 354 17 31 7 31 17 9 8 359 7 16 8 7 8 10 1 355 351 348 348 348 337 332 291 297 39 358 330 329 312 308 306 293 288 257 274
158 157 59 41 33 21 20 1 338 324 315 56 8 3 7 3 8 15 9 7 6 4 7 3 6 352 336 1 350 307 341 332 5 331 348 338 335 326 312 299 300 292 280
187 161 82 64 54 32 18 11 6 192 298 20 6 6 360 3 6 9 10 7 1 4 1 358 7 7 351 345 342 330 343 333 329 323 325 331 337 343 333 331 317 301 289
195 165 107 78 59 50 21 37 51 66 56 10 322 344 352 4 4 7 8 2 356 351 352 348 1 357 352 343 339 16 322 310 323 317 328 318 338 328 326 323 314 310 294
162 166 149 90 57 50 56 88 97 109 188 265 328 350 12 2 5 4 4 353 347 341 337 335 342 353 347 331 331 329 319 317 269 301 309 322 310 317 308 323 306 303 307
166 149 147 154 196 189 134 96 96 89 16 21 9 12 5 355 355 360 353 341 335 329 329 324 320 316 319 316 313 317 309 316 314 306 305 307 304 311 314 299 317 306 310